Погода в Новом Селе

Россия / Смоленская область     55°17′44″N   34°19′14″E
темп.,
°C
ветер,
м/с
пор.,
м/с
влажн.,
%
обл.,
%
осадки,
мм/ч
давл.,
гПа
погр.,
м
11 апреля, вс
вс1100:00+4ююз413745 0.0 1024277
03:00+2ююз4127947 0.0 1025251
06:00+2ююз37845 0.0 1026125
09:00+7юз47655 0.0 1027279
12:00+12ююз46525 0.0 1028829
15:00+14ююз45455 0.0 10281415
18:00+13ю34543 0.0 1029161
21:00+8ююв22670 0.0 103124
12 апреля, пн
пн1200:00+7ююв33740 0.0 103238
03:00+5юв33780 0.0 103245
06:00+4вюв34830 0.0 103259
09:00+8вюв49632 0.0 1031396
12:00+13вюв684486 0.0 1029946
15:00+13вюв6844100 0.0 10271055
18:00+11юв5969100 0.0 1026788
21:00+9юв41185100 0.0 1026413
13 апреля, вт
вт1300:00+7юв3895100 0.0 1025170
03:00+7юв2396100 0.0 102563
06:00+7вюв2395100 0.0 102453
09:00+11юв347992 0.0 1023216
12:00+16ююв3460100 0.0 1022628
15:00+18ююв4553100 0.0 10211025
18:00+16ююв4765100 0.0 1021288
21:00+12ююв3879100 0.0 1022139
14 апреля, ср
ср1400:00+10юв388348 0.0 1021138
03:00+9юв388198 0.0 1020133
06:00+8юв388273 0.0 1019134
09:00+12ююв41271100 0.0 1019450
12:00+16ю6959100 0.0 10191070
15:00+15ю4765100 0.5 1018466
18:00+15ю356862 1.0 1017198
21:00+12св1181100 1.6 101810
15 апреля, чт
чт1500:00+10в2283100 0.0 101833
03:00+10св2275100 0.0 101711
06:00+9ссз2278100 0.1 101715
09:00+10ссв4582100 0.2 1017340
12:00+13св4570100 0.0 1017664
15:00+14св6664100 0.1 1017928
18:00+10ссв8127999 0.1 1018618
21:00+6ссв8148692 0.5 1020514